Regional Weather Roundup
Issued by NWS

Home | Current Version | Previous Version | Text Only | Print | Product List | Glossary On
Versions: 1 2 3 4 5 6 7 8 9 10 11 12 13 14 15 16 17 18 19 20 21 22 23 24 25 26 27 28 29 30 31 32 33 34 35 36 37 38 39 40 41 42 43 44 45 46 47 48 49 50
000
ASHW40 PHFO 231710
RWRHI

WEATHER ROUNDUP FOR HAWAII
NATIONAL WEATHER SERVICE HONOLULU HI
700 AM HST SAT AUG 23 2014

THIS IS AN AUTOMATED REPORT THAT HAS NOT BEEN QUALITY CONTROLLED.

NOTE..."FAIR" INDICATES FEW OR NO CLOUDS BELOW 12,000 FEET WITH NO
SIGNIFICANT WEATHER AND/OR OBSTRUCTIONS TO VISIBILITY.

* - THESE SITES REPORT LIMITED FIELDS

HIZ001>004-231800-
KAUAI-NIIHAU-

CITY           SKY/WX    TMP DP  RH WIND       PRES   REMARKS
LIHUE APT      CLEAR     77  67  71 N7        30.01R
PORT ALLEN*      N/A     70 N/A N/A NE5         N/A
POIPU*           N/A     72 N/A N/A N5          N/A
PRINCEVILLE*   NOT AVBL
KOKOLE POINT*  NOT AVBL
MOLOAA DAIRY*  NOT AVBL
WAIMEA HTS*    NOT AVBL
PUU OPAE*      NOT AVBL
PUU LUA*       NOT AVBL
MAKAHA RIDGE*  NOT AVBL
$$

HIZ005>011-231800-
OAHU-

CITY           SKY/WX    TMP DP  RH WIND       PRES   REMARKS
HONOLULU       MOCLDY    76  68  76 VRB5      29.98R
KALAELOA       CLEAR     76  66  71 CALM      29.99R
KANEOHE MCB    MOSUNNY   75  69  81 VRB3      29.99R
WHEELER FIELD  FAIR      69  66  89 NW2       30.00R
BELLOWS*       NOT AVBL
KAHUKU*        NOT AVBL
WHEELER*       NOT AVBL
WAIANAE HARBOR NOT AVBL
DILLINGHAM*      N/A     75  66  73 E2G8        N/A
KAHUKU TRN*      N/A     73  70  88 E3G9        N/A
KAWAILOA*      NOT AVBL
KII*             N/A     79  70  73 E12         N/A
MAKUA RANGE*     N/A     72  66  83 SE2G14      N/A
OAHU FOREST NW NOT AVBL
SCHOFIELD BRK*   N/A     70  68  94 SW1         N/A
SCHOFIELD S*   NOT AVBL
WAIANAE VLY*   NOT AVBL
KUAOKALA*      NOT AVBL
HONOULIUULI*   NOT AVBL
MOKUOLOE IS*     N/A    N/A N/A N/A MISG        N/A
PALEHUA*       NOT AVBL
WAIAWA PHB*    NOT AVBL
$$

HIZ012>013-231800-
MOLOKAI-

CITY           SKY/WX    TMP DP  RH WIND       PRES   REMARKS
MOLOKAI AIRPT  MOSUNNY   75  71  87 NE6       29.99R
KALAUPAPA      NOT AVBL
MAKAPULAPAI*   NOT AVBL
MOLOKAI 1*     NOT AVBL
PUU ALII*      NOT AVBL
$$

HIZ016-231800-
KAHOOLAWE-

CITY           SKY/WX    TMP DP  RH WIND       PRES   REMARKS
KAHOOLAWE*     NOT AVBL
HAKIOAWA*      NOT AVBL
HONOKANAIA*      N/A     78  67  69 N7        29.98R
KANELOA*         N/A     73  66  78 NW9       30.06S
KEALIALALO*    NOT AVBL
LUA MAKIKA*    NOT AVBL
$$

HIZ014>015-231800-
LANAI-

CITY           SKY/WX    TMP DP  RH WIND       PRES   REMARKS
LANAI CITY     FAIR      71  65  81 E8        30.03R
LANAI 1*       NOT AVBL
$$

HIZ017>028-231800-
MAUI-

CITY           SKY/WX    TMP DP  RH WIND       PRES   REMARKS
KAHULUI        MOSUNNY   76  64  66 NE6       29.98R
KAPALUA-W MAUI MOSUNNY   75  66  73 E8        29.98R
HANA AIRPORT   NOT AVBL
HANA*          NOT AVBL
HALEAKALA SUMM NOT AVBL
MAALAEA BAY*   NOT AVBL
HALEAKALA*     NOT AVBL
KAUPO GAP*     NOT AVBL
KULA 1*          N/A    N/A N/A N/A SE3         N/A
$$

HIZ023>026-231800-
BIG ISLAND OF HAWAII COAST AND LOWER SLOPES-

CITY           SKY/WX    TMP DP  RH WIND       PRES   REMARKS
KAILUA KONA    MOSUNNY   76  60  57 NE9       29.92S
HILO           PTSUNNY   74  67  78 SW3       29.97R
HONOKAA*       NOT AVBL
KAWAIHAE MWT*  NOT AVBL
KAWAIHAE*        N/A     79 N/A N/A E7          N/A
SOUTH POINT*   NOT AVBL
UPOLU AIRPORT* NOT AVBL
KAMUELA*       NOT AVBL
HAKALAU*         N/A     51  51  98 N3          N/A
KALOKO-HONOKO* NOT AVBL
PALI 2*          N/A     66  57  72 N15G23      N/A
KEALAKOMO*       N/A     75  64  69 N17G30      N/A
KAUPULEHU*     NOT AVBL
KAPAPALA*        N/A     65  61  86 VRB1G8      N/A
LOWER KAHUKU*  NOT AVBL
PUHE CS*       NOT AVBL
PUHO CS*       NOT AVBL
PTA KEAMUKU*     N/A     61  55  82 NE18G26     N/A
WAIKOLOA*      NOT AVBL
$$

HIZ027>028-231800-
BIG ISLAND OF HAWAII INTERIOR AND SUMMMITS-

CITY           SKY/WX    TMP DP  RH WIND       PRES   REMARKS
BRADSHAW FIELD CLOUDY    50  45  83 SE6       30.28R
MK VISITOR CEN NOT AVBL
MAUNA KEA*     NOT AVBL
MAUNA LOA*     NOT AVBL
MAUNA LOA 1*   NOT AVBL
PTA KIPUKA*      N/A     52  43  71 SE3         N/A
PTA RANGE 17*    N/A     55  50  82 SE8G15      N/A
PTA WEST*        N/A     61  52  72 SE3G14      N/A
NENE CABIN*    NOT AVBL
AHUMOA*        NOT AVBL
PTA PORTABLE*  NOT AVBL
PUU MALI*      NOT AVBL
$$

HIC003-231800-
NORTHWEST ISLANDS-

CITY           SKY/WX    TMP DP  RH WIND       PRES   REMARKS
MIDWAY ISLAND  CLEAR     82  72  69 S12       30.07S
MIDWAY NOS*    NOT AVBL
FRENCH FRIGATE NOT AVBL
$$

PHZ110>124-180-231800-
BUOY REPORTS

STATION/POSITION TIME  TEMP    WIND        PRES    WAVE   SWELL
                       AIR SEA DIR/SP/G            HT/PER HT/DIR
                 (UTC) (F)     (DEG/KT/KT) (MB)    (FT/S) (FT/D)
BUOY 51001       NOT AVBL
BUOY 51101       NOT AVBL
BUOY 51100       1700   78 79   40/ 14/ 17 1015.2R
BUOY 51003       1600   81 82   60/ 16/ 17 1013.9R   7/ 8   5
BUOY 51004       1644   78 80   60/ 12/ 14 1012.8R   6/ 8   5/100
BARBERS PT BUOY  NOT AVBL
WAIMEA BAY BUOY  1700      81                N/A     3/ 6
KAILUA BAY BUOY  1700      80                N/A     5/ 7   2/140
LANAI BUOY       NOT AVBL
BARBERS PT 2     1700      81                N/A     3/14   2/190
PAUWELA MAUI     1700      80                N/A     5/ 8
HILO             NOT AVBL
KANEOHE BAY BUOY 1600      80                N/A     4/ 7
HANALEI KAUAI    NOT AVBL
KAHULUI HARBOR   1700   78 80   20/  9/ 11 1014.8R
HONOLULU HARBOR  1700   78      CALM  /  2 1015.2S
KILO NALU        NOT AVBL
HILO HARBOR      1700   75     300/  8/  9 1014.3S
MOKUOLOE         1700      81              1015.5R
NAWILIWILI       1700      82                N/A
WHOTS BUOY       NOT AVBL
BUOY 51028       NOT AVBL
$$

......................KEY........................................
  SKY/WX - SKY CONDITIONS/PRESENT WEATHER
  TMP    - TEMPERATURE IN FAHRENHEIT
  DWPT   - DEWPOINT IN FAHRENHEIT
  RH     - RELATIVE HUMIDITY IN PERCENT
  WIND   - DIRECTION AND SPEED /MPH FOR ISLANDS...KTS FOR BUOYS/
  PRES   - MEAN SEA LEVEL PRESSURE IN INCHES OF HG
  VSB    - VISIBILITY IN MILES
  HX     - HEAT INDEX
  WCI    - WIND CHILL INDEX
  VRB    - VARIABLE WIND DIRECTION
  N/A    - NOT AVAILABLE


USA.gov is the U.S. government's official web portal to all federal, state and local government web resources and services.